Wetterdaten: Freitag, 01.11.2013
Datum Zeit Temp. Auen Feucht Auen Luftdruck Regen Richtung Richtung Windben
01.11.2013 00:00 6,9 C 93 % 1024,0 hPa 0,0 mm W 273 1,6 km/h (1 Bft)
01.11.2013 00:05 6,9 C 93 % 1024,0 hPa 0,0 mm W 274 3,2 km/h (1 Bft)
01.11.2013 00:10 6,8 C 93 % 1024,1 hPa 0,0 mm W 274 3,2 km/h (1 Bft)
01.11.2013 00:15 6,8 C 93 % 1024,0 hPa 0,0 mm W 274 0,0 km/h (0 Bft)
01.11.2013 00:20 6,8 C 93 % 1024,2 hPa 0,0 mm W 274 3,2 km/h (1 Bft)
01.11.2013 00:25 6,8 C 93 % 1024,1 hPa 0,0 mm W 274 1,6 km/h (1 Bft)
01.11.2013 00:30 6,8 C 93 % 1024,0 hPa 0,0 mm W 274 0,0 km/h (0 Bft)
01.11.2013 00:35 6,7 C 92 % 1024,1 hPa 0,0 mm W 274 0,0 km/h (0 Bft)
01.11.2013 00:40 6,7 C 92 % 1024,1 hPa 0,0 mm W 274 0,0 km/h (0 Bft)
01.11.2013 00:45 6,7 C 93 % 1024,1 hPa 0,0 mm W 270 6,4 km/h (2 Bft)
01.11.2013 00:50 6,7 C 93 % 1024,2 hPa 0,0 mm W 281 4,8 km/h (1 Bft)
01.11.2013 00:55 6,7 C 93 % 1024,2 hPa 0,0 mm W-NW 282 3,2 km/h (1 Bft)
01.11.2013 01:00 6,6 C 93 % 1024,3 hPa 0,0 mm W 267 6,4 km/h (2 Bft)
01.11.2013 01:05 6,7 C 93 % 1024,2 hPa 0,0 mm W-NW 289 4,8 km/h (1 Bft)
01.11.2013 01:10 6,7 C 93 % 1024,2 hPa 0,0 mm W 274 4,8 km/h (1 Bft)
01.11.2013 01:15 6,6 C 93 % 1024,3 hPa 0,0 mm W 268 8,0 km/h (2 Bft)
01.11.2013 01:20 6,6 C 93 % 1024,2 hPa 0,0 mm NW 315 8,0 km/h (2 Bft)
01.11.2013 01:25 6,5 C 93 % 1024,2 hPa 0,0 mm W-NW 292 4,8 km/h (1 Bft)
01.11.2013 01:30 6,5 C 93 % 1024,1 hPa 0,0 mm W-NW 286 1,6 km/h (1 Bft)
01.11.2013 01:35 6,5 C 93 % 1024,1 hPa 0,0 mm W-NW 286 1,6 km/h (1 Bft)
01.11.2013 01:40 6,6 C 93 % 1024,2 hPa 0,0 mm W-NW 292 4,8 km/h (1 Bft)
01.11.2013 01:45 6,7 C 93 % 1024,3 hPa 0,0 mm W 269 6,4 km/h (2 Bft)
01.11.2013 01:50 6,7 C 93 % 1024,3 hPa 0,0 mm W-NW 288 6,4 km/h (2 Bft)
01.11.2013 01:55 6,7 C 93 % 1024,3 hPa 0,0 mm W-NW 297 6,4 km/h (2 Bft)
01.11.2013 02:00 6,8 C 93 % 1024,3 hPa 0,0 mm W 277 4,8 km/h (1 Bft)
01.11.2013 02:05 6,8 C 93 % 1024,2 hPa 0,0 mm W-NW 300 4,8 km/h (1 Bft)
01.11.2013 02:10 6,8 C 93 % 1024,3 hPa 0,0 mm W 277 4,8 km/h (1 Bft)
01.11.2013 02:15 6,8 C 93 % 1024,3 hPa 0,0 mm W 274 8,0 km/h (2 Bft)
01.11.2013 02:20 6,8 C 93 % 1024,3 hPa 0,0 mm W 280 4,8 km/h (1 Bft)
01.11.2013 02:25 6,8 C 93 % 1024,3 hPa 0,0 mm W 265 6,4 km/h (2 Bft)
01.11.2013 02:30 6,8 C 93 % 1024,1 hPa 0,0 mm W-NW 284 4,8 km/h (1 Bft)
01.11.2013 02:35 6,8 C 93 % 1024,2 hPa 0,0 mm W-NW 284 4,8 km/h (1 Bft)
01.11.2013 02:40 6,8 C 93 % 1024,1 hPa 0,0 mm W-NW 284 4,8 km/h (1 Bft)
01.11.2013 02:45 6,8 C 93 % 1024,0 hPa 0,0 mm W-NW 284 3,2 km/h (1 Bft)
01.11.2013 02:50 6,8 C 93 % 1024,0 hPa 0,0 mm W 273 4,8 km/h (1 Bft)
01.11.2013 02:55 6,8 C 93 % 1024,0 hPa 0,0 mm W 271 3,2 km/h (1 Bft)
01.11.2013 03:00 6,9 C 93 % 1023,9 hPa 0,0 mm W 271 3,2 km/h (1 Bft)
01.11.2013 03:05 6,8 C 93 % 1023,9 hPa 0,0 mm W 271 0,0 km/h (0 Bft)
01.11.2013 03:10 6,7 C 92 % 1023,9 hPa 0,0 mm W 271 3,2 km/h (1 Bft)
01.11.2013 03:15 6,6 C 92 % 1023,9 hPa 0,0 mm W-NW 286 4,8 km/h (1 Bft)
01.11.2013 03:20 6,6 C 93 % 1023,9 hPa 0,0 mm W-NW 286 1,6 km/h (1 Bft)
01.11.2013 03:25 6,7 C 93 % 1023,9 hPa 0,0 mm W-NW 286 1,6 km/h (1 Bft)
01.11.2013 03:30 6,7 C 93 % 1023,9 hPa 0,0 mm W-NW 286 0,0 km/h (0 Bft)
01.11.2013 03:35 6,8 C 93 % 1023,9 hPa 0,0 mm W-NW 286 0,0 km/h (0 Bft)
01.11.2013 03:40 6,8 C 93 % 1023,9 hPa 0,0 mm W-NW 286 0,0 km/h (0 Bft)
01.11.2013 03:45 6,8 C 93 % 1023,8 hPa 0,0 mm W-NW 286 0,0 km/h (0 Bft)
01.11.2013 03:50 6,9 C 93 % 1023,7 hPa 0,0 mm W-NW 286 0,0 km/h (0 Bft)
01.11.2013 03:55 6,9 C 93 % 1023,7 hPa 0,0 mm W-NW 286 0,0 km/h (0 Bft)
01.11.2013 04:00 6,8 C 93 % 1023,7 hPa 0,0 mm W-NW 286 0,0 km/h (0 Bft)
01.11.2013 04:05 6,9 C 93 % 1023,7 hPa 0,0 mm W-NW 286 0,0 km/h (0 Bft)
01.11.2013 04:10 6,9 C 93 % 1023,6 hPa 0,0 mm W-NW 286 0,0 km/h (0 Bft)
01.11.2013 04:15 6,9 C 93 % 1023,5 hPa 0,0 mm W-NW 286 0,0 km/h (0 Bft)
01.11.2013 04:20 6,8 C 93 % 1023,5 hPa 0,0 mm W-NW 286 0,0 km/h (0 Bft)
01.11.2013 04:25 6,8 C 93 % 1023,5 hPa 0,0 mm W-NW 286 0,0 km/h (0 Bft)
01.11.2013 04:30 6,9 C 93 % 1023,5 hPa 0,0 mm W-NW 286 0,0 km/h (0 Bft)
01.11.2013 04:35 6,8 C 93 % 1023,5 hPa 0,0 mm W-NW 286 0,0 km/h (0 Bft)
01.11.2013 04:40 6,8 C 93 % 1023,5 hPa 0,0 mm W-NW 286 0,0 km/h (0 Bft)
01.11.2013 04:45 6,8 C 93 % 1023,4 hPa 0,0 mm W-NW 286 0,0 km/h (0 Bft)
01.11.2013 04:50 6,8 C 93 % 1023,3 hPa 0,0 mm W-NW 286 0,0 km/h (0 Bft)
01.11.2013 04:55 6,7 C 92 % 1023,4 hPa 0,0 mm W-NW 286 0,0 km/h (0 Bft)
01.11.2013 05:00 6,6 C 92 % 1023,3 hPa 0,0 mm W-NW 286 0,0 km/h (0 Bft)
01.11.2013 05:05 6,4 C 92 % 1023,2 hPa 0,0 mm W-NW 286 0,0 km/h (0 Bft)
01.11.2013 05:10 6,2 C 92 % 1023,3 hPa 0,0 mm W-NW 286 0,0 km/h (0 Bft)
01.11.2013 05:15 5,9 C 92 % 1023,3 hPa 0,0 mm W-NW 286 0,0 km/h (0 Bft)
01.11.2013 05:20 5,7 C 93 % 1023,3 hPa 0,0 mm W-NW 286 0,0 km/h (0 Bft)
01.11.2013 05:25 5,6 C 93 % 1023,3 hPa 0,0 mm W-NW 286 0,0 km/h (0 Bft)
01.11.2013 05:30 5,6 C 93 % 1023,3 hPa 0,0 mm W-NW 286 0,0 km/h (0 Bft)
01.11.2013 05:35 5,5 C 93 % 1023,3 hPa 0,0 mm W-NW 286 0,0 km/h (0 Bft)
01.11.2013 05:40 5,5 C 93 % 1023,2 hPa 0,0 mm W-NW 286 0,0 km/h (0 Bft)
01.11.2013 05:45 5,4 C 93 % 1023,2 hPa 0,0 mm W-NW 286 0,0 km/h (0 Bft)
01.11.2013 05:50 5,4 C 93 % 1023,3 hPa 0,0 mm W-NW 286 0,0 km/h (0 Bft)
01.11.2013 05:55 5,6 C 93 % 1023,2 hPa 0,0 mm W-NW 286 0,0 km/h (0 Bft)
01.11.2013 06:00 5,7 C 93 % 1023,3 hPa 0,0 mm W-NW 286 0,0 km/h (0 Bft)
01.11.2013 06:05 5,7 C 93 % 1023,2 hPa 0,0 mm W-NW 286 0,0 km/h (0 Bft)
01.11.2013 06:10 5,8 C 93 % 1023,3 hPa 0,0 mm W-NW 286 0,0 km/h (0 Bft)
01.11.2013 06:15 5,9 C 93 % 1023,3 hPa 0,0 mm W-NW 286 0,0 km/h (0 Bft)
01.11.2013 06:20 6,1 C 93 % 1023,2 hPa 0,0 mm W-NW 286 0,0 km/h (0 Bft)
01.11.2013 06:25 6,1 C 93 % 1023,2 hPa 0,0 mm W-NW 286 0,0 km/h (0 Bft)
01.11.2013 06:30 6,1 C 93 % 1023,2 hPa 0,0 mm W-NW 286 0,0 km/h (0 Bft)
01.11.2013 06:35 6,2 C 93 % 1023,3 hPa 0,0 mm W-NW 286 0,0 km/h (0 Bft)
01.11.2013 06:40 6,2 C 93 % 1023,3 hPa 0,0 mm W-NW 286 0,0 km/h (0 Bft)
01.11.2013 06:45 6,2 C 93 % 1023,3 hPa 0,0 mm W-NW 286 0,0 km/h (0 Bft)
01.11.2013 06:50 6,2 C 93 % 1023,4 hPa 0,0 mm O 92 0,0 km/h (0 Bft)
01.11.2013 06:55 6,2 C 93 % 1023,4 hPa 0,0 mm O-NO 61 0,0 km/h (0 Bft)
01.11.2013 07:00 6,1 C 93 % 1023,4 hPa 0,0 mm O-NO 61 0,0 km/h (0 Bft)
01.11.2013 07:05 6,2 C 93 % 1023,5 hPa 0,0 mm O-NO 67 0,0 km/h (0 Bft)
01.11.2013 07:10 6,1 C 93 % 1023,5 hPa 0,0 mm O-SO 111 8,0 km/h (2 Bft)
01.11.2013 07:15 6,1 C 93 % 1023,5 hPa 0,0 mm O-NO 78 4,8 km/h (1 Bft)
01.11.2013 07:20 6,2 C 93 % 1023,5 hPa 0,0 mm O-NO 76 4,8 km/h (1 Bft)
01.11.2013 07:25 6,2 C 93 % 1023,6 hPa 0,0 mm O-NO 58 6,4 km/h (2 Bft)
01.11.2013 07:30 6,1 C 93 % 1023,6 hPa 0,0 mm NO 41 4,8 km/h (1 Bft)
01.11.2013 07:35 6,1 C 93 % 1023,6 hPa 0,0 mm O-NO 57 3,2 km/h (1 Bft)
01.11.2013 07:40 6,2 C 93 % 1023,5 hPa 0,0 mm O 84 8,0 km/h (2 Bft)
01.11.2013 07:45 6,2 C 93 % 1023,5 hPa 0,0 mm NO 44 4,8 km/h (1 Bft)
01.11.2013 07:50 6,2 C 93 % 1023,5 hPa 0,0 mm O-SO 107 3,2 km/h (1 Bft)
01.11.2013 07:55 6,4 C 93 % 1023,5 hPa 0,0 mm O-NO 77 4,8 km/h (1 Bft)
01.11.2013 08:00 6,3 C 93 % 1023,6 hPa 0,0 mm SO 127 4,8 km/h (1 Bft)
01.11.2013 08:05 6,3 C 93 % 1023,7 hPa 0,0 mm SO 126 0,0 km/h (0 Bft)
01.11.2013 08:10 6,4 C 93 % 1023,7 hPa 0,0 mm O 99 3,2 km/h (1 Bft)
01.11.2013 08:15 6,4 C 93 % 1023,7 hPa 0,0 mm O 99 1,6 km/h (1 Bft)
01.11.2013 08:20 6,5 C 93 % 1023,8 hPa 0,0 mm O 86 3,2 km/h (1 Bft)
01.11.2013 08:25 6,5 C 93 % 1023,8 hPa 0,0 mm O 86 1,6 km/h (1 Bft)
01.11.2013 08:30 6,6 C 93 % 1023,8 hPa 0,0 mm O 86 1,6 km/h (1 Bft)
01.11.2013 08:35 6,6 C 93 % 1023,8 hPa 0,0 mm O 86 4,8 km/h (1 Bft)
01.11.2013 08:40 6,6 C 93 % 1023,8 hPa 0,0 mm S-SO 150 6,4 km/h (2 Bft)
01.11.2013 08:45 6,7 C 93 % 1023,7 hPa 0,0 mm S-SO 156 6,4 km/h (2 Bft)
01.11.2013 08:50 6,7 C 93 % 1023,7 hPa 0,0 mm S-SO 156 4,8 km/h (1 Bft)
01.11.2013 08:55 6,8 C 93 % 1023,6 hPa 0,0 mm O 83 4,8 km/h (1 Bft)
01.11.2013 09:00 6,9 C 93 % 1023,6 hPa 0,0 mm O-SO 107 6,4 km/h (2 Bft)
01.11.2013 09:05 6,9 C 93 % 1023,6 hPa 0,0 mm SO 136 6,4 km/h (2 Bft)
01.11.2013 09:10 7,1 C 93 % 1023,6 hPa 0,0 mm O 84 4,8 km/h (1 Bft)
01.11.2013 09:15 7,0 C 93 % 1023,6 hPa 0,0 mm O-SO 113 3,2 km/h (1 Bft)
01.11.2013 09:20 6,9 C 93 % 1023,5 hPa 0,0 mm O 88 4,8 km/h (1 Bft)
01.11.2013 09:25 7,0 C 93 % 1023,4 hPa 0,0 mm O-SO 117 4,8 km/h (1 Bft)
01.11.2013 09:30 7,1 C 93 % 1023,4 hPa 0,0 mm O-NO 74 4,8 km/h (1 Bft)
01.11.2013 09:35 7,2 C 93 % 1023,3 hPa 0,0 mm O 82 6,4 km/h (2 Bft)
01.11.2013 09:40 7,3 C 93 % 1023,2 hPa 0,0 mm NO 42 4,8 km/h (1 Bft)
01.11.2013 09:45 7,3 C 93 % 1023,1 hPa 0,0 mm O-NO 57 6,4 km/h (2 Bft)
01.11.2013 09:50 7,5 C 93 % 1023,1 hPa 0,0 mm O-NO 59 6,4 km/h (2 Bft)
01.11.2013 09:55 7,6 C 93 % 1023,2 hPa 0,0 mm O 86 8,0 km/h (2 Bft)
01.11.2013 10:00 7,6 C 93 % 1023,1 hPa 0,0 mm SO 132 6,4 km/h (2 Bft)
01.11.2013 10:05 7,7 C 93 % 1023,1 hPa 0,0 mm NO 48 8,0 km/h (2 Bft)
01.11.2013 10:10 7,8 C 93 % 1023,0 hPa 0,0 mm NO 46 6,4 km/h (2 Bft)
01.11.2013 10:15 7,8 C 92 % 1023,0 hPa 0,0 mm O-NO 64 4,8 km/h (1 Bft)
01.11.2013 10:20 8,0 C 92 % 1023,0 hPa 0,0 mm N-NO 30 4,8 km/h (1 Bft)
01.11.2013 10:25 8,1 C 92 % 1023,0 hPa 0,0 mm O 90 8,0 km/h (2 Bft)
01.11.2013 10:30 8,1 C 92 % 1023,0 hPa 0,0 mm O 90 8,0 km/h (2 Bft)
01.11.2013 10:35 8,0 C 92 % 1022,9 hPa 0,0 mm SO 128 6,4 km/h (2 Bft)
01.11.2013 10:40 8,1 C 92 % 1023,0 hPa 0,0 mm O-NO 57 6,4 km/h (2 Bft)
01.11.2013 10:45 8,0 C 92 % 1022,9 hPa 0,0 mm SO 127 3,2 km/h (1 Bft)
01.11.2013 10:50 8,0 C 92 % 1022,8 hPa 0,0 mm SO 126 3,2 km/h (1 Bft)
01.11.2013 10:55 8,1 C 92 % 1022,7 hPa 0,0 mm S 175 8,0 km/h (2 Bft)
01.11.2013 11:00 8,1 C 92 % 1022,7 hPa 0,0 mm S 175 4,8 km/h (1 Bft)
01.11.2013 11:05 8,7 C 92 % 1022,6 hPa 0,0 mm S-SO 151 6,4 km/h (2 Bft)
01.11.2013 11:10 9,1 C 92 % 1022,6 hPa 0,0 mm O 101 6,4 km/h (2 Bft)
01.11.2013 11:15 9,2 C 92 % 1022,5 hPa 0,0 mm O 101 8,0 km/h (2 Bft)
01.11.2013 11:20 9,3 C 92 % 1022,4 hPa 0,0 mm O-SO 110 8,0 km/h (2 Bft)
01.11.2013 11:25 9,4 C 92 % 1022,2 hPa 0,0 mm SO 134 6,4 km/h (2 Bft)
01.11.2013 11:30 9,4 C 91 % 1022,1 hPa 0,0 mm O 94 8,0 km/h (2 Bft)
01.11.2013 11:35 9,7 C 91 % 1022,0 hPa 0,0 mm O 94 4,8 km/h (1 Bft)
01.11.2013 11:40 9,9 C 90 % 1022,0 hPa 0,0 mm SO 136 11,3 km/h (2 Bft)
01.11.2013 11:45 10,2 C 90 % 1021,9 hPa 0,0 mm O-SO 120 9,7 km/h (2 Bft)
01.11.2013 11:50 10,4 C 89 % 1021,9 hPa 0,0 mm O-NO 73 9,7 km/h (2 Bft)
01.11.2013 11:55 10,5 C 89 % 1021,8 hPa 0,0 mm SO 132 9,7 km/h (2 Bft)
01.11.2013 12:00 10,7 C 89 % 1021,7 hPa 0,0 mm O 96 9,7 km/h (2 Bft)
01.11.2013 12:05 10,8 C 87 % 1021,6 hPa 0,0 mm O-SO 105 11,3 km/h (2 Bft)
01.11.2013 12:10 10,7 C 87 % 1021,5 hPa 0,0 mm O-SO 116 11,3 km/h (2 Bft)
01.11.2013 12:15 10,9 C 88 % 1021,5 hPa 0,0 mm SO 131 8,0 km/h (2 Bft)
01.11.2013 12:20 10,9 C 87 % 1021,4 hPa 0,0 mm O 87 9,7 km/h (2 Bft)
01.11.2013 12:25 11,0 C 86 % 1021,4 hPa 0,0 mm NO 56 12,9 km/h (3 Bft)
01.11.2013 12:30 11,2 C 86 % 1021,2 hPa 0,0 mm SO 128 8,0 km/h (2 Bft)
01.11.2013 12:35 11,3 C 86 % 1021,1 hPa 0,0 mm O-SO 113 8,0 km/h (2 Bft)
01.11.2013 12:40 11,3 C 85 % 1021,1 hPa 0,0 mm SO 133 8,0 km/h (2 Bft)
01.11.2013 12:45 11,4 C 86 % 1021,1 hPa 0,0 mm O-SO 104 9,7 km/h (2 Bft)
01.11.2013 12:50 11,4 C 86 % 1021,0 hPa 0,0 mm O 88 9,7 km/h (2 Bft)
01.11.2013 12:55 11,4 C 87 % 1021,0 hPa 0,0 mm O-NO 67 12,9 km/h (3 Bft)
01.11.2013 13:00 11,3 C 85 % 1020,9 hPa 0,0 mm SO 129 11,3 km/h (2 Bft)
01.11.2013 13:05 11,3 C 85 % 1020,9 hPa 0,0 mm O-SO 119 8,0 km/h (2 Bft)
01.11.2013 13:10 11,3 C 86 % 1020,8 hPa 0,0 mm O-SO 117 8,0 km/h (2 Bft)
01.11.2013 13:15 11,4 C 86 % 1020,7 hPa 0,0 mm O-SO 115 8,0 km/h (2 Bft)
01.11.2013 13:20 11,5 C 86 % 1020,7 hPa 0,0 mm SO 144 8,0 km/h (2 Bft)
01.11.2013 13:25 11,6 C 86 % 1020,6 hPa 0,0 mm O-SO 115 8,0 km/h (2 Bft)
01.11.2013 13:30 11,7 C 87 % 1020,6 hPa 0,0 mm O-SO 109 8,0 km/h (2 Bft)
01.11.2013 13:35 11,7 C 86 % 1020,5 hPa 0,0 mm O-SO 122 9,7 km/h (2 Bft)
01.11.2013 13:40 11,7 C 86 % 1020,5 hPa 0,0 mm O-SO 123 8,0 km/h (2 Bft)
01.11.2013 13:45 11,8 C 86 % 1020,5 hPa 0,0 mm O-SO 106 8,0 km/h (2 Bft)
01.11.2013 13:50 11,6 C 86 % 1020,5 hPa 0,0 mm O 82 8,0 km/h (2 Bft)
01.11.2013 13:55 11,6 C 87 % 1020,5 hPa 0,0 mm O-NO 78 8,0 km/h (2 Bft)
01.11.2013 14:00 11,6 C 87 % 1020,5 hPa 0,0 mm O 81 8,0 km/h (2 Bft)
01.11.2013 14:05 11,5 C 87 % 1020,5 hPa 0,0 mm O-SO 104 6,4 km/h (2 Bft)
01.11.2013 14:10 11,6 C 87 % 1020,4 hPa 0,0 mm NO 49 8,0 km/h (2 Bft)
01.11.2013 14:15 11,4 C 87 % 1020,4 hPa 0,0 mm O 90 6,4 km/h (2 Bft)
01.11.2013 14:20 11,3 C 87 % 1020,3 hPa 0,0 mm O 101 8,0 km/h (2 Bft)
01.11.2013 14:25 11,3 C 88 % 1020,3 hPa 0,0 mm O-NO 75 6,4 km/h (2 Bft)
01.11.2013 14:30 11,2 C 88 % 1020,3 hPa 0,0 mm O-NO 71 6,4 km/h (2 Bft)
01.11.2013 14:35 11,2 C 88 % 1020,3 hPa 0,0 mm O 94 8,0 km/h (2 Bft)
01.11.2013 14:40 11,2 C 88 % 1020,2 hPa 0,0 mm NO 44 6,4 km/h (2 Bft)
01.11.2013 14:45 11,1 C 88 % 1020,1 hPa 0,0 mm O 86 4,8 km/h (1 Bft)
01.11.2013 14:50 11,1 C 88 % 1020,1 hPa 0,0 mm O 86 4,8 km/h (1 Bft)
01.11.2013 14:55 11,0 C 89 % 1020,1 hPa 0,0 mm O-SO 105 8,0 km/h (2 Bft)
01.11.2013 15:00 10,8 C 89 % 1020,0 hPa 0,0 mm SO 144 8,0 km/h (2 Bft)
01.11.2013 15:05 10,6 C 89 % 1020,1 hPa 0,0 mm O-SO 121 8,0 km/h (2 Bft)
01.11.2013 15:10 10,4 C 90 % 1020,0 hPa 0,0 mm O-SO 120 8,0 km/h (2 Bft)
01.11.2013 15:15 10,3 C 90 % 1019,9 hPa 0,0 mm O 98 11,3 km/h (2 Bft)
01.11.2013 15:20 10,2 C 90 % 1019,9 hPa 0,0 mm O-NO 74 9,7 km/h (2 Bft)
01.11.2013 15:25 10,1 C 90 % 1019,8 hPa 0,0 mm O-NO 75 8,0 km/h (2 Bft)
01.11.2013 15:30 10,1 C 90 % 1019,8 hPa 0,0 mm O 84 8,0 km/h (2 Bft)
01.11.2013 15:35 10,0 C 90 % 1019,8 hPa 0,0 mm O 83 8,0 km/h (2 Bft)
01.11.2013 15:40 9,9 C 90 % 1019,7 hPa 0,0 mm O 97 4,8 km/h (1 Bft)
01.11.2013 15:45 9,9 C 90 % 1019,7 hPa 0,0 mm O 84 8,0 km/h (2 Bft)
01.11.2013 15:50 9,8 C 91 % 1019,7 hPa 0,0 mm O 94 4,8 km/h (1 Bft)
01.11.2013 15:55 9,7 C 91 % 1019,6 hPa 0,0 mm O 96 4,8 km/h (1 Bft)
01.11.2013 16:00 9,7 C 91 % 1019,5 hPa 0,0 mm O 101 4,8 km/h (1 Bft)
01.11.2013 16:05 9,6 C 91 % 1019,6 hPa 0,0 mm O 92 4,8 km/h (1 Bft)
01.11.2013 16:10 9,5 C 91 % 1019,6 hPa 0,0 mm O-SO 108 3,2 km/h (1 Bft)
01.11.2013 16:15 9,4 C 91 % 1019,4 hPa 0,0 mm O 96 3,2 km/h (1 Bft)
01.11.2013 16:20 9,3 C 91 % 1019,4 hPa 0,0 mm SO 124 6,4 km/h (2 Bft)
01.11.2013 16:25 9,2 C 91 % 1019,4 hPa 0,0 mm SO 134 4,8 km/h (1 Bft)
01.11.2013 16:30 9,1 C 92 % 1019,3 hPa 0,0 mm SO 134 3,2 km/h (1 Bft)
01.11.2013 16:35 9,0 C 92 % 1019,4 hPa 0,0 mm SO 134 1,6 km/h (1 Bft)
01.11.2013 16:40 8,9 C 92 % 1019,5 hPa 0,0 mm SO 134 0,0 km/h (0 Bft)
01.11.2013 16:45 8,8 C 92 % 1019,4 hPa 0,0 mm SO 134 1,6 km/h (1 Bft)
01.11.2013 16:50 8,8 C 92 % 1019,4 hPa 0,0 mm SO 134 1,6 km/h (1 Bft)
01.11.2013 16:55 8,8 C 92 % 1019,4 hPa 0,0 mm SO 134 1,6 km/h (1 Bft)
01.11.2013 17:00 8,7 C 92 % 1019,4 hPa 0,0 mm SO 134 0,0 km/h (0 Bft)
01.11.2013 17:05 8,7 C 92 % 1019,5 hPa 0,0 mm SO 134 1,6 km/h (1 Bft)
01.11.2013 17:10 8,6 C 92 % 1019,4 hPa 0,0 mm SO 134 1,6 km/h (1 Bft)
01.11.2013 17:15 8,3 C 92 % 1019,3 hPa 0,0 mm SO 134 0,0 km/h (0 Bft)
01.11.2013 17:20 7,9 C 92 % 1019,3 hPa 0,0 mm SO 134 0,0 km/h (0 Bft)
01.11.2013 17:25 7,9 C 92 % 1019,3 hPa 0,0 mm SO 134 0,0 km/h (0 Bft)
01.11.2013 17:30 7,6 C 92 % 1019,2 hPa 0,0 mm SO 134 0,0 km/h (0 Bft)
01.11.2013 17:35 7,5 C 92 % 1019,2 hPa 0,0 mm SO 134 0,0 km/h (0 Bft)
01.11.2013 17:40 7,7 C 92 % 1019,1 hPa 0,0 mm SO 134 0,0 km/h (0 Bft)
01.11.2013 17:45 7,6 C 93 % 1018,9 hPa 0,0 mm SO 134 0,0 km/h (0 Bft)
01.11.2013 17:50 7,5 C 92 % 1019,0 hPa 0,0 mm SO 134 0,0 km/h (0 Bft)
01.11.2013 17:55 7,5 C 93 % 1019,0 hPa 0,0 mm SO 134 0,0 km/h (0 Bft)
01.11.2013 18:00 7,4 C 92 % 1019,0 hPa 0,0 mm SO 134 1,6 km/h (1 Bft)
01.11.2013 18:05 7,6 C 93 % 1018,9 hPa 0,0 mm SO 134 0,0 km/h (0 Bft)
01.11.2013 18:10 7,7 C 93 % 1018,9 hPa 0,0 mm SO 134 0,0 km/h (0 Bft)
01.11.2013 18:15 7,6 C 93 % 1018,8 hPa 0,0 mm SO 134 0,0 km/h (0 Bft)
01.11.2013 18:20 7,5 C 93 % 1018,9 hPa 0,0 mm SO 134 0,0 km/h (0 Bft)
01.11.2013 18:25 7,6 C 93 % 1018,9 hPa 0,0 mm SO 134 0,0 km/h (0 Bft)
01.11.2013 18:30 7,6 C 93 % 1018,8 hPa 0,0 mm SO 134 0,0 km/h (0 Bft)
01.11.2013 18:35 7,5 C 93 % 1018,7 hPa 0,0 mm SO 134 0,0 km/h (0 Bft)
01.11.2013 18:40 7,5 C 93 % 1018,7 hPa 0,0 mm SO 134 0,0 km/h (0 Bft)
01.11.2013 18:45 7,6 C 93 % 1018,7 hPa 0,0 mm SO 134 0,0 km/h (0 Bft)
01.11.2013 18:50 7,5 C 93 % 1018,6 hPa 0,0 mm SO 134 0,0 km/h (0 Bft)
01.11.2013 18:55 7,4 C 93 % 1018,5 hPa 0,0 mm SO 134 0,0 km/h (0 Bft)
01.11.2013 19:00 7,3 C 93 % 1018,4 hPa 0,0 mm SO 134 0,0 km/h (0 Bft)
01.11.2013 19:05 7,0 C 93 % 1018,1 hPa 0,0 mm SO 134 0,0 km/h (0 Bft)
01.11.2013 19:10 6,8 C 93 % 1018,2 hPa 0,0 mm SO 134 0,0 km/h (0 Bft)
01.11.2013 19:15 6,8 C 93 % 1018,3 hPa 0,0 mm SO 134 0,0 km/h (0 Bft)
01.11.2013 19:20 7,0 C 93 % 1018,2 hPa 0,0 mm SO 134 0,0 km/h (0 Bft)
01.11.2013 19:25 6,5 C 93 % 1018,1 hPa 0,0 mm SO 134 0,0 km/h (0 Bft)
01.11.2013 19:30 6,6 C 93 % 1018,0 hPa 0,0 mm SO 134 0,0 km/h (0 Bft)
01.11.2013 19:35 6,6 C 93 % 1017,9 hPa 0,0 mm SO 134 0,0 km/h (0 Bft)
01.11.2013 19:40 6,3 C 93 % 1017,9 hPa 0,0 mm SO 134 0,0 km/h (0 Bft)
01.11.2013 19:45 6,3 C 93 % 1017,8 hPa 0,0 mm SO 134 0,0 km/h (0 Bft)
01.11.2013 19:50 6,1 C 93 % 1017,8 hPa 0,0 mm SO 134 0,0 km/h (0 Bft)
01.11.2013 19:55 6,1 C 93 % 1017,8 hPa 0,0 mm SO 134 0,0 km/h (0 Bft)
01.11.2013 20:00 6,0 C 93 % 1017,7 hPa 0,0 mm SO 134 0,0 km/h (0 Bft)
01.11.2013 20:05 6,1 C 93 % 1017,7 hPa 0,0 mm SO 134 0,0 km/h (0 Bft)
01.11.2013 20:10 6,2 C 93 % 1017,7 hPa 0,0 mm SO 134 0,0 km/h (0 Bft)
01.11.2013 20:15 6,1 C 93 % 1017,7 hPa 0,0 mm SO 134 0,0 km/h (0 Bft)
01.11.2013 20:20 6,3 C 93 % 1017,8 hPa 0,0 mm SO 134 0,0 km/h (0 Bft)
01.11.2013 20:25 6,3 C 93 % 1017,8 hPa 0,0 mm SO 134 0,0 km/h (0 Bft)
01.11.2013 20:30 6,4 C 93 % 1017,8 hPa 0,0 mm SO 134 0,0 km/h (0 Bft)
01.11.2013 20:35 6,4 C 93 % 1017,8 hPa 0,0 mm SO 134 0,0 km/h (0 Bft)
01.11.2013 20:40 6,2 C 93 % 1017,8 hPa 0,0 mm SO 134 0,0 km/h (0 Bft)
01.11.2013 20:45 6,3 C 93 % 1017,7 hPa 0,0 mm SO 134 0,0 km/h (0 Bft)
01.11.2013 20:50 6,3 C 93 % 1017,6 hPa 0,0 mm SO 134 0,0 km/h (0 Bft)
01.11.2013 20:55 6,3 C 93 % 1017,3 hPa 0,0 mm SO 134 0,0 km/h (0 Bft)
01.11.2013 21:00 6,6 C 93 % 1017,3 hPa 0,0 mm SO 134 0,0 km/h (0 Bft)
01.11.2013 21:05 6,6 C 93 % 1017,2 hPa 0,0 mm SO 134 0,0 km/h (0 Bft)
01.11.2013 21:10 6,3 C 93 % 1017,1 hPa 0,0 mm SO 134 0,0 km/h (0 Bft)
01.11.2013 21:15 6,4 C 93 % 1017,0 hPa 0,0 mm SO 134 0,0 km/h (0 Bft)
01.11.2013 21:20 6,6 C 93 % 1016,9 hPa 0,0 mm SO 134 0,0 km/h (0 Bft)
01.11.2013 21:25 6,4 C 93 % 1016,9 hPa 0,0 mm SO 134 0,0 km/h (0 Bft)
01.11.2013 21:30 6,2 C 93 % 1016,9 hPa 0,0 mm SO 134 0,0 km/h (0 Bft)
01.11.2013 21:35 6,2 C 93 % 1016,8 hPa 0,0 mm SO 134 0,0 km/h (0 Bft)
01.11.2013 21:40 6,1 C 93 % 1016,8 hPa 0,0 mm SO 134 0,0 km/h (0 Bft)
01.11.2013 21:45 6,1 C 93 % 1016,7 hPa 0,0 mm SO 134 0,0 km/h (0 Bft)
01.11.2013 21:50 5,7 C 93 % 1016,7 hPa 0,0 mm SO 134 0,0 km/h (0 Bft)
01.11.2013 21:55 5,4 C 93 % 1016,7 hPa 0,0 mm SO 134 0,0 km/h (0 Bft)
01.11.2013 22:00 5,3 C 93 % 1016,6 hPa 0,0 mm SO 145 0,0 km/h (0 Bft)
01.11.2013 22:05 5,4 C 93 % 1016,5 hPa 0,0 mm SO 145 0,0 km/h (0 Bft)
01.11.2013 22:10 5,3 C 93 % 1016,5 hPa 0,0 mm W 272 3,2 km/h (1 Bft)
01.11.2013 22:15 5,5 C 93 % 1016,5 hPa 0,0 mm W 272 3,2 km/h (1 Bft)
01.11.2013 22:20 5,6 C 93 % 1016,4 hPa 0,0 mm W 272 3,2 km/h (1 Bft)
01.11.2013 22:25 5,7 C 93 % 1016,5 hPa 0,0 mm W 272 3,2 km/h (1 Bft)
01.11.2013 22:30 5,6 C 94 % 1016,5 hPa 0,0 mm W 272 1,6 km/h (1 Bft)
01.11.2013 22:35 5,6 C 93 % 1016,3 hPa 0,0 mm W 272 0,0 km/h (0 Bft)
01.11.2013 22:40 5,6 C 94 % 1016,2 hPa 0,0 mm W 272 0,0 km/h (0 Bft)
01.11.2013 22:45 5,6 C 93 % 1016,1 hPa 0,0 mm W 272 0,0 km/h (0 Bft)
01.11.2013 22:50 5,6 C 93 % 1016,2 hPa 0,0 mm W 272 0,0 km/h (0 Bft)
01.11.2013 22:55 5,6 C 93 % 1016,0 hPa 0,0 mm W 272 0,0 km/h (0 Bft)
01.11.2013 23:00 5,5 C 94 % 1015,9 hPa 0,0 mm W 272 0,0 km/h (0 Bft)
01.11.2013 23:05 5,4 C 94 % 1015,9 hPa 0,0 mm W 272 0,0 km/h (0 Bft)
01.11.2013 23:10 5,6 C 94 % 1015,9 hPa 0,0 mm W 272 0,0 km/h (0 Bft)
01.11.2013 23:15 5,7 C 94 % 1015,9 hPa 0,0 mm W 272 0,0 km/h (0 Bft)
01.11.2013 23:20 5,4 C 94 % 1015,9 hPa 0,0 mm W 272 0,0 km/h (0 Bft)
01.11.2013 23:25 5,3 C 94 % 1015,8 hPa 0,0 mm W 272 0,0 km/h (0 Bft)
01.11.2013 23:30 5,3 C 94 % 1015,8 hPa 0,0 mm W 272 0,0 km/h (0 Bft)
01.11.2013 23:35 5,2 C 94 % 1015,8 hPa 0,0 mm W 272 0,0 km/h (0 Bft)
01.11.2013 23:40 5,1 C 94 % 1015,7 hPa 0,0 mm W 272 0,0 km/h (0 Bft)
01.11.2013 23:45 5,2 C 94 % 1015,7 hPa 0,0 mm W 272 0,0 km/h (0 Bft)
01.11.2013 23:50 5,3 C 94 % 1015,7 hPa 0,0 mm W 272 0,0 km/h (0 Bft)
01.11.2013 23:55 5,2 C 94 % 1015,6 hPa 0,0 mm W-NW 285 3,2 km/h (1 Bft)
_ Min-Zeit 23:40 12:40 23:55 - - - 00:15
Minimum _ 5,1 C 85 % 1015,6 hPa - - - 0,0 km/h (0 Bft)
_ Max-Zeit 13:45 22:30 01:00 00:00 - - 12:25
Maximum _ 11,8 C 94 % 1024,3 hPa 0,0 mm - - 12,9 km/h
O-SO (3 Bft)
Durchschnitt _ 7,6 C 92 % 1021,1 hPa #0,0 mm SO - 3,3 km/h (1 Bft)